This is the latest recevied weather packets stored in our database for station/object W0SS-13. If no packets are shown the sender has not sent any weather packets the latest 10 day(s).
| Time | Temp. | Humidity | Pressure | Rain* | Wind** | Luminosity | Snow |
|---|---|---|---|---|---|---|---|
| 1777917237 | 25° C | 50% | 1004.2 hPa | 0 mm | - | 798 W/m² | - |
| 1777916935 | 25° C | 51% | 1004.3 hPa | 0 mm | - | 797 W/m² | - |
| 1777916633 | 25° C | 48% | 1004.2 hPa | 0 mm | - | 796 W/m² | - |
| 1777916330 | 25° C | 50% | 1004.4 hPa | 0 mm | - | 795 W/m² | - |
| 1777916026 | 24.44° C | 51% | 1004.4 hPa | 0 mm | - | 790 W/m² | - |
| 1777915724 | 24.44° C | 48% | 1004.2 hPa | 0 mm | - | 778 W/m² | - |
| 1777915420 | 23.89° C | 49% | 1004.2 hPa | 0 mm | - | 780 W/m² | - |
| 1777915116 | 23.89° C | 51% | 1004.6 hPa | 0 mm | - | 779 W/m² | - |
| 1777914813 | 23.89° C | 51% | 1004.6 hPa | 0 mm | - | 773 W/m² | - |
| 1777914510 | 23.89° C | 50% | 1004.4 hPa | 0 mm | - | 769 W/m² | - |
| 1777914207 | 23.89° C | 49% | 1004.7 hPa | 0 mm | - | 763 W/m² | - |
| 1777913903 | 23.89° C | 51% | 1004.4 hPa | 0 mm | - | 757 W/m² | - |
| 1777913600 | 23.89° C | 51% | 1004.6 hPa | 0 mm | - | 750 W/m² | - |
| 1777913296 | 23.33° C | 49% | 1004.6 hPa | 0 mm | - | 745 W/m² | - |
| 1777912994 | 23.33° C | 48% | 1004.6 hPa | 0 mm | - | 737 W/m² | - |
| 1777912689 | 23.33° C | 50% | 1004.8 hPa | 0 mm | - | 732 W/m² | - |
| 1777912386 | 23.33° C | 50% | 1004.9 hPa | 0 mm | - | 723 W/m² | - |
| 1777912082 | 23.33° C | 50% | 1004.6 hPa | 0 mm | - | 716 W/m² | - |
| 1777911777 | 22.78° C | 50% | 1004.6 hPa | 0 mm | - | 707 W/m² | - |
| 1777911475 | 23.33° C | 51% | 1004.8 hPa | 0 mm | - | 698 W/m² | - |
| 1777911172 | 22.78° C | 51% | 1004.4 hPa | 0 mm | - | 690 W/m² | - |
| 1777910869 | 22.78° C | 53% | 1004.6 hPa | 0 mm | - | 682 W/m² | - |
| 1777910565 | 22.78° C | 51% | 1004.6 hPa | 0 mm | - | 674 W/m² | - |
| 1777910263 | 22.78° C | 51% | 1004.8 hPa | 0 mm | - | 666 W/m² | - |
| 1777909959 | 22.78° C | 54% | 1004.9 hPa | 0 mm | - | 652 W/m² | - |
* Rain latest hour (hover to see other rain measurements)
** Current wind speed in m/s (hover to see current wind gust speed)